Time,TemperatureF,DewpointF,PressureIn,WindDirection,WindDirectionDegrees,WindSpeedMPH,WindSpeedGustMPH,Humidity,HourlyPrecipIn,Conditions,Clouds,dailyrainin,SoftwareType,DateUTC
2013-04-27 00:14:00,47.9,30.0,30.41,West,275,0.0,-999.0,51,-99.99,,,0.00,weatherlink.com 1.10,2013-04-27 04:14:00,
2013-04-27 00:29:00,47.4,30.0,30.41,West,278,1.0,-999.0,51,-99.99,,,0.00,weatherlink.com 1.10,2013-04-27 04:29:00,
2013-04-27 00:44:00,47.1,30.0,30.41,WNW,284,0.0,-999.0,51,-99.99,,,0.00,weatherlink.com 1.10,2013-04-27 04:44:00,
2013-04-27 00:59:00,46.9,29.0,30.41,WNW,284,0.0,-999.0,51,-99.99,,,0.00,weatherlink.com 1.10,2013-04-27 04:59:00,
2013-04-27 01:14:00,46.1,30.0,30.41,WNW,284,0.0,-999.0,54,-99.99,,,0.00,weatherlink.com 1.10,2013-04-27 05:14:00,
2013-04-27 01:29:00,45.2,31.0,30.41,WNW,284,0.0,-999.0,58,-99.99,,,0.00,weatherlink.com 1.10,2013-04-27 05:29:00,
2013-04-27 01:44:00,44.0,31.0,30.41,WNW,282,0.0,-999.0,61,-99.99,,,0.00,weatherlink.com 1.10,2013-04-27 05:44:00,
2013-04-27 01:59:00,43.2,31.0,30.41,West,272,0.0,-999.0,63,-99.99,,,0.00,weatherlink.com 1.10,2013-04-27 05:59:00,
2013-04-27 02:14:00,42.4,31.0,30.41,West,268,0.0,-999.0,65,-99.99,,,0.00,weatherlink.com 1.10,2013-04-27 06:14:00,
2013-04-27 02:29:00,41.6,31.0,30.40,WSW,246,0.0,-999.0,66,-99.99,,,0.00,weatherlink.com 1.10,2013-04-27 06:29:00,
2013-04-27 02:44:00,41.1,31.0,30.40,West,277,0.0,-999.0,67,-99.99,,,0.00,weatherlink.com 1.10,2013-04-27 06:44:00,
2013-04-27 02:59:00,40.5,31.0,30.40,West,279,0.0,-999.0,70,-99.99,,,0.00,weatherlink.com 1.10,2013-04-27 06:59:00,
2013-04-27 03:14:00,39.9,31.0,30.39,West,273,0.0,-999.0,71,-99.99,,,0.00,weatherlink.com 1.10,2013-04-27 07:14:00,
2013-04-27 03:29:00,39.2,31.0,30.39,West,279,0.0,-999.0,73,-99.99,,,0.00,weatherlink.com 1.10,2013-04-27 07:29:00,
2013-04-27 03:44:00,38.5,31.0,30.39,WSW,254,0.0,-999.0,73,-99.99,,,0.00,weatherlink.com 1.10,2013-04-27 07:44:00,
2013-04-27 03:59:00,38.0,30.0,30.39,South,186,0.0,-999.0,74,-99.99,,,0.00,weatherlink.com 1.10,2013-04-27 07:59:00,
2013-04-27 04:14:00,37.4,30.0,30.39,WNW,283,0.0,-999.0,76,-99.99,,,0.00,weatherlink.com 1.10,2013-04-27 08:14:00,
2013-04-27 04:29:00,36.7,30.0,30.39,WNW,282,0.0,-999.0,77,-99.99,,,0.00,weatherlink.com 1.10,2013-04-27 08:29:00,
2013-04-27 04:44:00,36.6,30.0,30.40,WNW,282,0.0,-999.0,78,-99.99,,,0.00,weatherlink.com 1.10,2013-04-27 08:44:00,
2013-04-27 04:59:00,35.9,30.0,30.39,West,272,0.0,-999.0,79,-99.99,,,0.00,weatherlink.com 1.10,2013-04-27 08:59:00,
2013-04-27 05:14:00,35.2,29.0,30.39,SSW,198,0.0,-999.0,79,-99.99,,,0.00,weatherlink.com 1.10,2013-04-27 09:14:00,
2013-04-27 05:29:00,34.9,30.0,30.39,WNW,282,0.0,-999.0,82,-99.99,,,0.00,weatherlink.com 1.10,2013-04-27 09:29:00,
2013-04-27 05:44:00,34.7,30.0,30.39,WNW,282,0.0,-999.0,84,-99.99,,,0.00,weatherlink.com 1.10,2013-04-27 09:44:00,
2013-04-27 05:59:00,34.4,30.0,30.40,South,178,0.0,-999.0,84,-99.99,,,0.00,weatherlink.com 1.10,2013-04-27 09:59:00,
2013-04-27 06:14:00,34.1,30.0,30.40,South,178,0.0,-999.0,84,-99.99,,,0.00,weatherlink.com 1.10,2013-04-27 10:14:00,
2013-04-27 06:29:00,34.1,30.0,30.40,South,178,0.0,-999.0,86,-99.99,,,0.00,weatherlink.com 1.10,2013-04-27 10:29:00,
2013-04-27 06:44:00,34.5,31.0,30.40,South,178,0.0,-999.0,86,-99.99,,,0.00,weatherlink.com 1.10,2013-04-27 10:44:00,
2013-04-27 06:59:00,35.6,32.0,30.40,South,178,0.0,-999.0,86,-99.99,,,0.00,weatherlink.com 1.10,2013-04-27 10:59:00,
2013-04-27 07:14:00,36.8,32.0,30.41,South,178,0.0,-999.0,84,-99.99,,,0.00,weatherlink.com 1.10,2013-04-27 11:14:00,
2013-04-27 07:29:00,38.4,33.0,30.41,South,178,0.0,-999.0,80,-99.99,,,0.00,weatherlink.com 1.10,2013-04-27 11:29:00,
2013-04-27 07:44:00,40.6,33.0,30.41,South,178,1.0,-999.0,75,-99.99,,,0.00,weatherlink.com 1.10,2013-04-27 11:44:00,
2013-04-27 07:59:00,43.8,32.0,30.41,SSW,198,2.0,-999.0,64,-99.99,,,0.00,weatherlink.com 1.10,2013-04-27 11:59:00,
2013-04-27 08:14:00,46.0,33.0,30.41,West,277,1.0,-999.0,61,-99.99,,,0.00,weatherlink.com 1.10,2013-04-27 12:14:00,
2013-04-27 08:29:00,47.2,33.0,30.41,WSW,244,1.0,-999.0,58,-99.99,,,0.00,weatherlink.com 1.10,2013-04-27 12:29:00,
2013-04-27 08:44:00,48.7,33.0,30.41,SW,215,0.0,-999.0,55,-99.99,,,0.00,weatherlink.com 1.10,2013-04-27 12:44:00,
2013-04-27 08:59:00,49.8,33.0,30.40,West,265,1.0,-999.0,52,-99.99,,,0.00,weatherlink.com 1.10,2013-04-27 12:59:00,
2013-04-27 09:14:00,50.6,33.0,30.40,SSW,211,2.0,-999.0,51,-99.99,,,0.00,weatherlink.com 1.10,2013-04-27 13:14:00,
2013-04-27 09:29:00,51.7,33.0,30.40,SW,215,5.0,-999.0,50,-99.99,,,0.00,weatherlink.com 1.10,2013-04-27 13:29:00,
2013-04-27 09:44:00,52.9,33.0,30.40,SW,227,5.0,-999.0,48,-99.99,,,0.00,weatherlink.com 1.10,2013-04-27 13:44:00,
2013-04-27 09:59:00,53.4,33.0,30.40,SW,221,5.0,-999.0,47,-99.99,,,0.00,weatherlink.com 1.10,2013-04-27 13:59:00,
2013-04-27 10:14:00,54.4,34.0,30.39,NW,323,2.0,-999.0,47,-99.99,,,0.00,weatherlink.com 1.10,2013-04-27 14:14:00,
2013-04-27 10:29:00,55.2,33.0,30.39,SSE,154,0.0,-999.0,44,-99.99,,,0.00,weatherlink.com 1.10,2013-04-27 14:29:00,
2013-04-27 10:44:00,55.7,33.0,30.39,NW,310,4.0,-999.0,42,-99.99,,,0.00,weatherlink.com 1.10,2013-04-27 14:44:00,
2013-04-27 10:59:00,56.8,33.0,30.39,WSW,242,3.0,-999.0,40,-99.99,,,0.00,weatherlink.com 1.10,2013-04-27 14:59:00,
2013-04-27 11:14:00,58.2,34.0,30.39,WNW,301,2.0,-999.0,40,-99.99,,,0.00,weatherlink.com 1.10,2013-04-27 15:14:00,
2013-04-27 11:29:00,58.6,34.0,30.39,WSW,252,0.0,-999.0,40,-99.99,,,0.00,weatherlink.com 1.10,2013-04-27 15:29:00,
2013-04-27 11:44:00,59.6,33.0,30.38,South,182,2.0,-999.0,37,-99.99,,,0.00,weatherlink.com 1.10,2013-04-27 15:44:00,
2013-04-27 11:59:00,60.5,32.0,30.38,ESE,112,5.0,-999.0,34,-99.99,,,0.00,weatherlink.com 1.10,2013-04-27 15:59:00,
2013-04-27 12:14:00,61.0,28.0,30.37,WNW,288,5.0,-999.0,29,-99.99,,,0.00,weatherlink.com 1.10,2013-04-27 16:14:00,
2013-04-27 12:29:00,61.3,28.0,30.37,SW,236,0.0,-999.0,28,-99.99,,,0.00,weatherlink.com 1.10,2013-04-27 16:29:00,
2013-04-27 12:44:00,62.2,29.0,30.36,WNW,285,3.0,-999.0,28,-99.99,,,0.00,weatherlink.com 1.10,2013-04-27 16:44:00,
2013-04-27 12:59:00,62.5,28.0,30.36,SW,215,0.0,-999.0,27,-99.99,,,0.00,weatherlink.com 1.10,2013-04-27 16:59:00,
2013-04-27 13:14:00,62.7,30.0,30.34,SE,142,2.0,-999.0,29,-99.99,,,0.00,weatherlink.com 1.10,2013-04-27 17:14:00,
2013-04-27 13:29:00,64.0,29.0,30.34,NW,315,2.0,-999.0,27,-99.99,,,0.00,weatherlink.com 1.10,2013-04-27 17:29:00,
2013-04-27 13:44:00,64.3,28.0,30.33,West,278,5.0,-999.0,25,-99.99,,,0.00,weatherlink.com 1.10,2013-04-27 17:44:00,
2013-04-27 13:59:00,64.3,29.0,30.33,ESE,109,2.0,-999.0,26,-99.99,,,0.00,weatherlink.com 1.10,2013-04-27 17:59:00,
2013-04-27 14:14:00,65.1,26.0,30.32,SE,133,0.0,-999.0,23,-99.99,,,0.00,weatherlink.com 1.10,2013-04-27 18:14:00,
2013-04-27 14:29:00,65.7,26.0,30.32,WNW,302,6.0,-999.0,22,-99.99,,,0.00,weatherlink.com 1.10,2013-04-27 18:29:00,
2013-04-27 14:44:00,65.9,25.0,30.32,WNW,288,5.0,-999.0,21,-99.99,,,0.00,weatherlink.com 1.10,2013-04-27 18:44:00,
2013-04-27 14:59:00,65.5,26.0,30.31,ENE,71,0.0,-999.0,22,-99.99,,,0.00,weatherlink.com 1.10,2013-04-27 18:59:00,
2013-04-27 15:14:00,66.5,26.0,30.30,South,175,1.0,-999.0,22,-99.99,,,0.00,weatherlink.com 1.10,2013-04-27 19:14:00,
2013-04-27 15:29:00,66.7,29.0,30.30,WSW,238,5.0,-999.0,24,-99.99,,,0.00,weatherlink.com 1.10,2013-04-27 19:29:00,
2013-04-27 15:44:00,66.9,29.0,30.29,WNW,296,2.0,-999.0,24,-99.99,,,0.00,weatherlink.com 1.10,2013-04-27 19:44:00,
2013-04-27 15:59:00,67.5,28.0,30.28,West,259,2.0,-999.0,23,-99.99,,,0.00,weatherlink.com 1.10,2013-04-27 19:59:00,
2013-04-27 16:14:00,66.8,27.0,30.28,SSW,202,0.0,-999.0,22,-99.99,,,0.00,weatherlink.com 1.10,2013-04-27 20:14:00,
2013-04-27 16:29:00,67.0,29.0,30.27,West,278,1.0,-999.0,24,-99.99,,,0.00,weatherlink.com 1.10,2013-04-27 20:29:00,
2013-04-27 16:44:00,67.3,27.0,30.27,South,178,2.0,-999.0,22,-99.99,,,0.00,weatherlink.com 1.10,2013-04-27 20:44:00,
2013-04-27 16:59:00,67.0,32.0,30.27,NW,317,1.0,-999.0,27,-99.99,,,0.00,weatherlink.com 1.10,2013-04-27 20:59:00,
2013-04-27 17:14:00,66.4,29.0,30.27,WNW,286,0.0,-999.0,25,-99.99,,,0.00,weatherlink.com 1.10,2013-04-27 21:14:00,
2013-04-27 17:29:00,66.1,32.0,30.27,WNW,291,2.0,-999.0,28,-99.99,,,0.00,weatherlink.com 1.10,2013-04-27 21:29:00,
2013-04-27 17:44:00,66.0,32.0,30.27,West,261,1.0,-999.0,28,-99.99,,,0.00,weatherlink.com 1.10,2013-04-27 21:44:00,
2013-04-27 17:59:00,65.7,32.0,30.26,WNW,283,1.0,-999.0,28,-99.99,,,0.00,weatherlink.com 1.10,2013-04-27 21:59:00,
2013-04-27 18:14:00,65.8,31.0,30.26,West,263,0.0,-999.0,27,-99.99,,,0.00,weatherlink.com 1.10,2013-04-27 22:14:00,
2013-04-27 18:29:00,65.5,30.0,30.25,WNW,289,0.0,-999.0,27,-99.99,,,0.00,weatherlink.com 1.10,2013-04-27 22:29:00,
2013-04-27 18:44:00,65.1,30.0,30.25,WSW,240,0.0,-999.0,27,-99.99,,,0.00,weatherlink.com 1.10,2013-04-27 22:44:00,
2013-04-27 18:59:00,64.6,31.0,30.26,WNW,290,0.0,-999.0,28,-99.99,,,0.00,weatherlink.com 1.10,2013-04-27 22:59:00,
2013-04-27 19:14:00,64.3,31.0,30.26,West,281,0.0,-999.0,29,-99.99,,,0.00,weatherlink.com 1.10,2013-04-27 23:14:00,
2013-04-27 19:29:00,64.1,32.0,30.26,West,281,0.0,-999.0,30,-99.99,,,0.00,weatherlink.com 1.10,2013-04-27 23:29:00,
2013-04-27 19:44:00,63.6,32.0,30.26,West,281,0.0,-999.0,31,-99.99,,,0.00,weatherlink.com 1.10,2013-04-27 23:44:00,
2013-04-27 19:59:00,62.8,34.0,30.26,West,281,0.0,-999.0,34,-99.99,,,0.00,weatherlink.com 1.10,2013-04-27 23:59:00,
2013-04-27 20:14:00,61.2,31.0,30.27,South,178,5.0,-999.0,32,-99.99,,,0.00,weatherlink.com 1.10,2013-04-28 00:14:00,
2013-04-27 20:29:00,59.8,33.0,30.27,South,180,0.0,-999.0,37,-99.99,,,0.00,weatherlink.com 1.10,2013-04-28 00:29:00,
2013-04-27 20:44:00,58.8,34.0,30.28,SSW,193,0.0,-999.0,40,-99.99,,,0.00,weatherlink.com 1.10,2013-04-28 00:44:00,
2013-04-27 20:59:00,58.1,34.0,30.28,SSW,194,0.0,-999.0,40,-99.99,,,0.00,weatherlink.com 1.10,2013-04-28 00:59:00,
2013-04-27 21:14:00,57.1,33.0,30.29,South,179,0.0,-999.0,41,-99.99,,,0.00,weatherlink.com 1.10,2013-04-28 01:14:00,
2013-04-27 21:29:00,55.8,34.0,30.30,South,179,0.0,-999.0,44,-99.99,,,0.00,weatherlink.com 1.10,2013-04-28 01:29:00,
2013-04-27 21:44:00,54.8,35.0,30.30,South,179,0.0,-999.0,47,-99.99,,,0.00,weatherlink.com 1.10,2013-04-28 01:44:00,
2013-04-27 21:59:00,53.9,34.0,30.30,South,179,0.0,-999.0,48,-99.99,,,0.00,weatherlink.com 1.10,2013-04-28 01:59:00,
2013-04-27 22:14:00,52.9,35.0,30.30,South,179,0.0,-999.0,50,-99.99,,,0.00,weatherlink.com 1.10,2013-04-28 02:14:00,
2013-04-27 22:29:00,52.1,35.0,30.31,South,179,0.0,-999.0,52,-99.99,,,0.00,weatherlink.com 1.10,2013-04-28 02:29:00,
2013-04-27 22:44:00,51.2,34.0,30.30,South,179,0.0,-999.0,53,-99.99,,,0.00,weatherlink.com 1.10,2013-04-28 02:44:00,
2013-04-27 22:59:00,50.6,34.0,30.30,South,179,0.0,-999.0,54,-99.99,,,0.00,weatherlink.com 1.10,2013-04-28 02:59:00,
2013-04-27 23:14:00,49.8,35.0,30.30,South,179,0.0,-999.0,57,-99.99,,,0.00,weatherlink.com 1.10,2013-04-28 03:14:00,
2013-04-27 23:29:00,48.8,34.0,30.30,South,178,0.0,-999.0,58,-99.99,,,0.00,weatherlink.com 1.10,2013-04-28 03:29:00,
2013-04-27 23:44:00,48.1,35.0,30.30,South,178,0.0,-999.0,60,-99.99,,,0.00,weatherlink.com 1.10,2013-04-28 03:44:00,
2013-04-27 23:59:00,47.5,34.0,30.30,South,178,0.0,-999.0,59,-99.99,,,0.00,weatherlink.com 1.10,2013-04-28 03:59:00,